This is the latest recevied weather packets stored in our database for station/object JA7ZQY-10. If no packets are shown the sender has not sent any weather packets the latest 10 day(s).
| Time | Temp. | Humidity | Pressure | Rain* | Wind** | Luminosity | Snow |
|---|---|---|---|---|---|---|---|
| 1778112891 | 21.67° C | 41% | 1013 hPa | 0 mm | - | - | - |
| 1778112291 | 21.67° C | 41% | 1013.2 hPa | 0 mm | - | - | - |
| 1778111690 | 21.67° C | 41% | 1013 hPa | 0 mm | - | - | - |
| 1778111092 | 21.67° C | 41% | 1013.3 hPa | 0 mm | - | - | - |
| 1778110491 | 21.67° C | 41% | 1013.3 hPa | 0 mm | - | - | - |
| 1778109891 | 21.67° C | 41% | 1013.6 hPa | 0 mm | - | - | - |
| 1778109291 | 21.11° C | 42% | 1013.6 hPa | 0 mm | - | - | - |
| 1778108690 | 21.11° C | 42% | 1013.9 hPa | 0 mm | - | - | - |
| 1778108090 | 20.56° C | 42% | 1013.7 hPa | 0 mm | - | - | - |
| 1778107490 | 20.56° C | 42% | 1013.9 hPa | 0 mm | - | - | - |
| 1778106890 | 20° C | 42% | 1014.1 hPa | 0 mm | - | - | - |
| 1778106290 | 20° C | 43% | 1014.1 hPa | 0 mm | - | - | - |
| 1778105689 | 20° C | 43% | 1014.2 hPa | 0 mm | - | - | - |
| 1778105089 | 19.44° C | 44% | 1014.3 hPa | 0 mm | - | - | - |
| 1778104489 | 18.89° C | 44% | 1014.1 hPa | 0 mm | - | - | - |
| 1778103889 | 18.89° C | 45% | 1014.2 hPa | 0 mm | - | - | - |
| 1778103290 | 18.33° C | 46% | 1014.2 hPa | 0 mm | - | - | - |
| 1778102690 | 18.33° C | 47% | 1014.3 hPa | 0 mm | - | - | - |
| 1778102089 | 17.78° C | 50% | 1014.6 hPa | 0 mm | - | - | - |
| 1778101490 | 16.67° C | 56% | 1014.4 hPa | 0 mm | - | - | - |
| 1778100891 | 16.11° C | 59% | 1014.4 hPa | 0 mm | - | - | - |
| 1778100290 | 15° C | 62% | 1014.4 hPa | 0 mm | - | - | - |
| 1778099691 | 13.89° C | 66% | 1014.5 hPa | 0 mm | - | - | - |
| 1778099090 | 12.22° C | 72% | 1014.5 hPa | 0 mm | - | - | - |
| 1778098490 | 11.67° C | 72% | 1014.7 hPa | 0 mm | - | - | - |
* Rain latest hour (hover to see other rain measurements)
** Current wind speed in m/s (hover to see current wind gust speed)